Location: Melbourne
(37.8170°S, 144.9670°E)
Time: 22:04:48
(UTC+10:00)

ISS - Visible Passes

Search period start: 29 July 2016 00:00
Search period end: 08 August 2016 00:00
Orbit: 401 x 404 km, 51.6° (Epoch: 29 July)

Date Brightness Start Highest point End Pass type
(mag) Time Alt. Az. Time Alt. Az. Time Alt. Az.
30 Jul 0.2 06:35:09 10° NNE 06:36:20 12° NE 06:37:32 10° ENE visible
01 Aug -1.1 06:23:43 10° NNW 06:26:37 28° NE 06:29:32 10° ESE visible
02 Aug -0.2 05:32:02 10° NNE 05:33:52 14° NE 05:35:42 10° E visible
03 Aug -3.2 06:13:43 10° NW 06:17:01 76° NE 06:20:21 10° SE visible
04 Aug -1.9 05:23:40 32° NNE 05:24:09 34° NE 05:27:13 10° ESE visible
05 Aug -2.9 06:06:17 28° W 06:07:33 43° SW 06:10:46 10° SE visible
06 Aug -1.7 05:16:00 31° SE 05:16:00 31° SE 05:17:55 10° SE visible
07 Aug -1.8 05:58:09 22° SSW 05:58:14 22° SSW 06:00:57 10° SSE visible
